This is the latest recevied weather packets stored in our database for station/object ON7XX-13. If no packets are shown the sender has not sent any weather packets the latest 10 day(s).
| Time | Temp. | Humidity | Pressure | Rain* | Wind** | Luminosity | Snow |
|---|---|---|---|---|---|---|---|
| 1777061651 | 13.33° C | 52% | 1023.3 hPa | - | - | - | - |
| 1777061037 | 13.33° C | 51% | 1023.3 hPa | - | - | - | - |
| 1777060423 | 13.89° C | 51% | 1023.4 hPa | - | - | - | - |
| 1777059809 | 13.89° C | 50% | 1023.4 hPa | - | - | - | - |
| 1777059195 | 14.44° C | 49% | 1023.4 hPa | - | - | - | - |
| 1777058581 | 14.44° C | 48% | 1023.4 hPa | - | - | - | - |
| 1777057966 | 15° C | 47% | 1023.2 hPa | - | - | - | - |
| 1777057352 | 15.56° C | 46% | 1023.3 hPa | - | - | - | - |
| 1777056737 | 16.11° C | 46% | 1023.2 hPa | - | - | - | - |
| 1777056123 | 16.67° C | 45% | 1023.2 hPa | - | - | - | - |
| 1777055509 | 16.67° C | 43% | 1023.2 hPa | - | - | - | - |
| 1777054895 | 17.22° C | 43% | 1023.1 hPa | - | - | - | - |
| 1777054281 | 17.78° C | 42% | 1023.1 hPa | - | - | - | - |
| 1777053666 | 18.33° C | 41% | 1023.2 hPa | - | - | - | - |
| 1777053052 | 18.89° C | 39% | 1023.1 hPa | - | - | - | - |
| 1777052438 | 19.44° C | 38% | 1023.1 hPa | - | - | - | - |
| 1777051824 | 20.56° C | 38% | 1023.1 hPa | - | - | - | - |
| 1777051209 | 20.56° C | 37% | 1023.2 hPa | - | - | - | - |
| 1777050595 | 21.11° C | 36% | 1023.2 hPa | - | - | - | - |
| 1777049981 | 21.67° C | 36% | 1023.3 hPa | - | - | - | - |
| 1777049367 | 22.22° C | 36% | 1023.4 hPa | - | - | - | - |
| 1777048753 | 22.78° C | 37% | 1023.5 hPa | - | - | - | - |
| 1777048138 | 22.78° C | 36% | 1023.5 hPa | - | - | - | - |
| 1777047524 | 23.33° C | 37% | 1023.5 hPa | - | - | - | - |
| 1777046909 | 23.33° C | 37% | 1023.5 hPa | - | - | - | - |
* Rain since midnight (hover to see other rain measurements)
** Current wind speed in m/s (hover to see current wind gust speed)